Location: San Pelegr�n
(42.1868°N, 0.0079°E)
Time: 21:57:42
(UTC+00:00)

Meteor 1-27 - Pass Details

Date: 24 January 2020
Orbit: 836 x 894 km, 81.3° (Epoch: 19 February)

Event Time Altitude Azimuth Distance (km) Brightness Sun altitude
Rises 19:10:22 0° 348° (NNW) 3,398 7.4 -23.4°
Reaches altitude 10° 19:12:47 10° 348° (NNW) 2,458 6.7 -23.8°
Maximum altitude 19:18:21 80° 263° (W) 856 4.2 -24.9°
Drops below altitude 10° 19:23:53 10° 176° (S) 2,452 6.6 -25.9°
Sets 19:26:18 0° 176° (S) 3,388 7.3 -26.3°
